Green Bay, WI

1:12 PM CST on February 21, 2018 (GMT -0600)
Austin Straubel International

Weather History for KGRB - March, 2013

Change the Weather History Date:

Saturday, March 16, 2013

  Actual Average Record
Temperature  
Mean Temperature 24 °F 31 °F  
Max Temperature 30 °F 39 °F 70 °F (1927)
Min Temperature 17 °F 22 °F -12 °F (1997)
Degree Days  
Heating Degree Days 41 34  
Month to date heating degree days 644 597  
Since 1 July heating degree days 6087 6437  
Cooling Degree Days 0 0  
Month to date cooling degree days 0 0  
Year to date cooling degree days 0 0  
Moisture  
Dew Point 14 °F    
Average Humidity 71    
Maximum Humidity 91    
Minimum Humidity 50    
Precipitation  
Precipitation 0.12 in 0.06 in 0.69 in (1982)
Month to date precipitation 1.51 0.90  
Year to date precipitation 6.17 3.14  
Snow  
Snow 1.60 in 0.30 in 1.80 in (1917)
Month to date snowfall 3.5 5.1  
Since 1 July snowfall 61.5 45.3  
Snow Depth 5.00 in    
Sea Level Pressure  
Sea Level Pressure 29.99 in    
Wind  
Wind Speed 11 mph (North)    
Max Wind Speed 25 mph    
Max Gust Speed 30 mph    
Visibility 6 miles    
Events Fog , Snow    
T = Trace of Precipitation, MM = Missing Value Source: NWS Daily Summary

Daily Weather History Graph

Daily Weather History Graph

Search for Another Location

Airport or City:

Trip Planner

Search our weather history database for the weather conditions in past years. The results will help you decide how hot, cold, wet, or windy it might be!

Date:

Astronomy

Mar. 16, 2013 Rise Set
Actual Time 7:02 AM CDT 7:00 PM CDT
Civil Twilight 6:33 AM CDT 7:29 PM CDT
Nautical Twilight 5:59 AM CDT 8:03 PM CDT
Astronomical Twilight 5:25 AM CDT 8:37 PM CDT
Moon 9:20 AM CDT (3/16) No Moon Set
Length of Visible Light 12h 55m
Length of Day
11h 57m
Waxing Crescent, 23% of the Moon is Illuminated
Mar 16
Waxing Crescent
Mar 19
First Quarter
Mar 27
Full
Apr 2
Last Quarter
Apr 10
New

Hourly Weather History & Observations

Time (CDT) Temp. Windchill Dew Point Humidity Pressure Visibility Wind Dir Wind Speed Gust Speed Precip Events Conditions
12:53 AM 19.9 °F 5.2 °F 17.1 °F 89% 29.96 in 1.0 mi NNE 17.3 mph 27.6 mph 0.03 in Snow Light Snow
1:23 AM 19.9 °F 4.8 °F 17.1 °F 89% 29.91 in 1.2 mi NE 18.4 mph - 0.02 in Snow Light Snow
1:34 AM 19.9 °F 5.2 °F 17.1 °F 89% 29.91 in 1.0 mi NE 17.3 mph - 0.02 in Snow Light Snow
1:43 AM 19.9 °F 3.9 °F 16.0 °F 85% 29.90 in 1.0 mi NNE 20.7 mph 27.6 mph 0.02 in Snow Light Snow
1:46 AM 19.9 °F 4.3 °F 16.0 °F 85% 29.90 in 0.8 mi NE 19.6 mph - 0.02 in Snow Light Snow
1:53 AM 19.9 °F 3.2 °F 16.0 °F 85% 29.93 in 0.5 mi NE 23.0 mph 27.6 mph 0.03 in Fog , Snow Snow
2:23 AM 19.0 °F 1.6 °F 16.0 °F 88% 29.89 in 1.2 mi NE 24.2 mph 29.9 mph 0.01 in Snow Light Snow
2:32 AM 19.0 °F 1.3 °F 15.1 °F 85% 29.89 in 1.8 mi NNE 25.3 mph - 0.01 in Snow Light Snow
2:44 AM 19.0 °F 2.4 °F 15.1 °F 85% 29.89 in 2.0 mi NNE 21.9 mph 29.9 mph 0.01 in Snow Light Snow
2:53 AM 19.0 °F 2.7 °F 15.1 °F 85% 29.92 in 2.0 mi NE 20.7 mph - 0.02 in Snow Light Snow
3:08 AM 19.0 °F 2.0 °F 15.1 °F 85% 29.89 in 1.8 mi NE 23.0 mph - 0.00 in Snow Light Snow
3:40 AM 19.0 °F 4.0 °F 15.1 °F 85% 29.90 in 2.0 mi NNE 17.3 mph 25.3 mph 0.01 in Snow Light Snow
3:51 AM 19.4 °F 3.6 °F 15.8 °F 86% 29.88 in 2.5 mi NE 19.6 mph - 0.01 in Snow Light Snow
3:53 AM 19.0 °F 4.0 °F 14.0 °F 81% 29.91 in 3.0 mi NE 17.3 mph 27.6 mph 0.01 in Snow Light Snow
4:53 AM 19.0 °F 5.0 °F 14.0 °F 81% 29.94 in 4.0 mi North 15.0 mph - 0.01 in Snow Light Snow
5:53 AM 19.0 °F 5.0 °F 12.9 °F 77% 29.95 in 10.0 mi NNE 15.0 mph - 0.00 in   Overcast
6:53 AM 19.0 °F 5.6 °F 12.9 °F 77% 29.98 in 10.0 mi North 13.8 mph - N/A   Overcast
7:53 AM 19.0 °F 5.6 °F 12.9 °F 77% 30.00 in 4.0 mi North 13.8 mph - 0.00 in Snow Light Snow
8:07 AM 19.0 °F 5.6 °F 14.0 °F 81% 29.97 in 2.5 mi North 13.8 mph - 0.00 in Snow Light Snow
8:53 AM 19.0 °F 6.1 °F 12.9 °F 77% 30.02 in 3.0 mi North 12.7 mph - 0.00 in Snow Light Snow
9:23 AM 19.9 °F 6.7 °F 14.0 °F 78% 29.99 in 2.5 mi North 13.8 mph - 0.00 in Snow Light Snow
9:34 AM 21.0 °F 8.6 °F 14.0 °F 74% 29.99 in 3.0 mi North 12.7 mph - 0.00 in Snow Light Snow
9:53 AM 21.0 °F 9.3 °F 14.0 °F 74% 30.04 in 3.0 mi North 11.5 mph - 0.00 in Snow Light Snow
10:53 AM 23.0 °F 11.7 °F 14.0 °F 68% 30.04 in 10.0 mi North 11.5 mph - 0.00 in   Mostly Cloudy
11:53 AM 25.0 °F 18.1 °F 14.0 °F 63% 30.06 in 10.0 mi Variable 5.8 mph - 0.00 in   Partly Cloudy
12:53 PM 26.1 °F 19.4 °F 12.0 °F 55% 30.06 in 10.0 mi NW 5.8 mph - 0.00 in   Clear
1:53 PM 26.1 °F 18.4 °F 12.0 °F 55% 30.05 in 10.0 mi WNW 6.9 mph - 0.00 in   Clear
2:53 PM 28.0 °F 24.2 °F 12.9 °F 53% 30.03 in 10.0 mi NNW 3.5 mph - 0.00 in   Clear
3:53 PM 28.0 °F 21.7 °F 15.1 °F 58% 30.04 in 10.0 mi WSW 5.8 mph - N/A   Clear
4:53 PM 28.4 °F 18.0 °F 14.0 °F 55% 29.99 in 10.0 mi West 12.7 mph - N/A   Mostly Cloudy
5:53 PM 28.0 °F 20.0 °F 15.1 °F 58% 30.01 in 10.0 mi West 8.1 mph - N/A   Scattered Clouds
6:53 PM 27.0 °F 16.1 °F 12.9 °F 56% 30.02 in 10.0 mi West 12.7 mph - N/A   Partly Cloudy
7:53 PM 24.1 °F 15.2 °F 12.0 °F 60% 30.04 in 10.0 mi West 8.1 mph - N/A   Clear
8:53 PM 24.1 °F 13.7 °F 12.0 °F 60% 30.08 in 10.0 mi West 10.4 mph - N/A   Clear
9:53 PM 24.1 °F 12.5 °F 12.0 °F 60% 30.11 in 10.0 mi West 12.7 mph - N/A   Overcast
10:53 PM 21.9 °F 11.7 °F 10.9 °F 63% 30.12 in 10.0 mi WNW 9.2 mph - N/A   Mostly Cloudy
11:53 PM 19.0 °F 11.1 °F 10.0 °F 68% 30.13 in 10.0 mi WNW 5.8 mph - N/A   Clear